This demonstration page uses our WeatherBlox Daily Observations layout. Learn more.

Left ArrowRight Arrow

53.62937, 11.41316

Hourly Observations for April 30, 2022

Temp ( °F °C ) Dew Point ( °F °C ) Humidity (%) Winds ( mph kmh ) Pressure ( in mb ) Visibility ( mi km ) Precip ( " mm )
12:20 am 00:20 Mostly Clear 41 5 37 3 87 87 VRB 2 4 30.33 1027 30 48 N/A
12:50 am 00:50 Mostly Clear 41 5 37 3 87 87 WSW 2 4 30.33 1027 30 48 N/A
1:20 am 01:20 Mostly Clear 39 4 37 3 93 93 VRB 2 4 30.33 1027 30 48 N/A
1:50 am 01:50 Mostly Clear 39 4 37 3 93 93 VRB 2 4 30.33 1027 30 48 N/A
2:20 am 02:20 Mostly Clear 39 4 36 2 87 87 VRB 2 4 30.30 1026 30 48 N/A
2:50 am 02:50 Mostly Clear 37 3 36 2 93 93 VRB 2 4 30.30 1026 30 48 N/A
3:20 am 03:20 Mostly Clear 36 2 36 2 100 100 VRB 1 2 30.30 1026 30 48 N/A
3:50 am 03:50 Mostly Clear 36 2 34 1 93 93 VRB 2 4 30.30 1026 30 48 N/A
4:20 am 04:20 Mostly Clear 36 2 34 1 93 93 WSW 3 6 30.30 1026 3 5 N/A
4:50 am 04:50 Partly Cloudy 36 2 34 1 93 93 VRB 2 4 30.27 1025 1 2 N/A
5:20 am 05:20 Mostly Clear 36 2 34 1 93 93 VRB 2 4 30.27 1025 1 1 N/A
5:50 am 05:50 Mostly Sunny 34 1 34 1 100 100 VRB 2 4 30.27 1025 0 0 N/A
6:20 am 06:20 Mostly Cloudy 36 2 34 1 93 93 VRB 1 2 30.27 1025 1 1 N/A
6:50 am 06:50 Mostly Sunny 36 2 36 2 100 100 WSW 3 6 30.27 1025 3 5 N/A
7:20 am 07:20 Mostly Sunny 39 4 37 3 93 93 SW 3 6 30.27 1025 6 9 N/A
7:50 am 07:50 Mostly Sunny 41 5 41 5 100 100 W 3 6 30.27 1025 7 11 N/A
8:20 am 08:20 Mostly Sunny 45 7 41 5 87 87 WNW 3 6 30.27 1025 7 11 N/A
8:50 am 08:50 Mostly Sunny 48 9 41 5 76 76 NNW 5 7 30.27 1025 7 11 N/A
9:20 am 09:20 Mostly Sunny 50 10 41 5 71 71 NNW 5 7 30.27 1025 7 11 N/A
9:50 am 09:50 Mostly Sunny 50 10 41 5 71 71 NNW 6 9 30.27 1025 7 11 N/A
10:20 am 10:20 Mostly Sunny 52 11 41 5 67 67 VRB 5 7 30.27 1025 7 11 N/A
10:50 am 10:50 Partly Cloudy 54 12 41 5 63 63 WNW 7 11 30.27 1025 30 48 N/A
11:20 am 11:20 Mostly Sunny 55 13 41 5 59 59 VRB 6 9 30.27 1025 30 48 N/A
11:50 am 11:50 Mostly Sunny 55 13 34 1 44 44 VRB 6 9 30.27 1025 30 48 N/A
12:20 pm 12:20 Mostly Sunny 55 13 36 2 47 47 NW 8 13 30.27 1025 30 48 N/A
12:50 pm 12:50 Mostly Sunny 57 14 37 3 48 48 VRB 5 7 30.27 1025 30 48 N/A
1:20 pm 13:20 Partly Cloudy 57 14 39 4 51 51 WNW 5 7 30.24 1024 30 48 N/A
1:50 pm 13:50 Mostly Cloudy 57 14 37 3 48 48 NW 7 11 30.24 1024 30 48 N/A
2:20 pm 14:20 Partly Cloudy 59 15 39 4 48 48 VRB 5 7 30.24 1024 30 48 N/A
2:50 pm 14:50 Mostly Sunny 57 14 36 2 44 44 W 5 7 30.24 1024 7 11 N/A
3:20 pm 15:20 Mostly Sunny 57 14 36 2 44 44 WNW 8 13 30.24 1024 7 11 N/A
3:50 pm 15:50 Mostly Sunny 57 14 37 3 48 48 NW 6 9 30.24 1024 7 11 N/A
4:20 pm 16:20 Mostly Sunny 57 14 36 2 44 44 NW 5 7 30.21 1023 7 11 N/A
4:50 pm 16:50 Mostly Sunny 57 14 36 2 44 44 NW 9 15 30.21 1023 7 11 N/A
5:20 pm 17:20 Partly Cloudy 57 14 37 3 48 48 NNW 8 13 30.21 1023 30 48 N/A
5:50 pm 17:50 Mostly Sunny 55 13 39 4 55 55 NE 7 11 30.21 1023 30 48 N/A
6:20 pm 18:20 Mostly Sunny 55 13 39 4 55 55 NNE 5 7 30.21 1023 30 48 N/A
6:50 pm 18:50 Mostly Sunny 57 14 36 2 44 44 NNW 7 11 30.21 1023 30 48 N/A
7:20 pm 19:20 Mostly Sunny 55 13 36 2 47 47 NNW 6 9 30.21 1023 7 11 N/A
7:50 pm 19:50 Mostly Sunny 55 13 34 1 44 44 N 6 9 30.21 1023 7 11 N/A
8:20 pm 20:20 Mostly Sunny 54 12 37 3 54 54 VRB 2 4 30.21 1023 7 11 N/A
8:50 pm 20:50 Mostly Clear 54 12 39 4 58 58 VRB 2 4 30.21 1023 7 11 N/A
9:20 pm 21:20 Cloudy 52 11 41 5 67 67 VRB 5 7 30.24 1024 30 48 N/A
9:50 pm 21:50 Mostly Clear 50 10 39 4 67 67 VRB 2 4 30.24 1024 30 48 N/A
10:20 pm 22:20 Mostly Clear 46 8 39 4 76 76 Calm 30.24 1024 30 48 N/A
10:50 pm 22:50 Mostly Clear 48 9 39 4 71 71 WNW 5 7 30.24 1024 30 48 N/A
11:20 pm 23:20 Mostly Clear 46 8 37 3 71 71 NW 2 4 30.24 1024 30 48 N/A
11:50 pm 23:50 Mostly Clear 46 8 39 4 76 76 NW 5 7 30.24 1024 30 48 N/A

Powered by AerisWeather